Charles City, IA

9:01 AM CDT on July 24, 2017 (GMT -0500)
Charles City Municipal

Weather History for KCCY - January, 2013

Change the Weather History Date:

Monday, January 21, 2013

  Actual Average Record
Temperature  
Mean Temperature -1 °F -  
Max Temperature 5 °F 27 °F 48 °F (1964)
Min Temperature -7 °F 10 °F -28 °F (1970)
Degree Days  
Heating Degree Days 66    
Moisture  
Dew Point -12 °F    
Average Humidity 58    
Maximum Humidity 72    
Minimum Humidity 47    
Precipitation  
Precipitation 0.00 in - - ()
Sea Level Pressure  
Sea Level Pressure 30.28 in    
Wind  
Wind Speed 18 mph (WNW)    
Max Wind Speed 23 mph    
Max Gust Speed 31 mph    
Visibility 10 miles    
Events      
Averages and records for this station are not official NWS values.
T = Trace of Precipitation, MM = Missing Value Source: NWS Daily Summary

Daily Weather History Graph

Daily Weather History Graph

Search for Another Location

Airport or City:

Trip Planner

Search our weather history database for the weather conditions in past years. The results will help you decide how hot, cold, wet, or windy it might be!

Date:

Astronomy

Jan. 21, 2013 Rise Set
Actual Time 7:35 AM CST 5:08 PM CST
Civil Twilight 7:04 AM CST 5:39 PM CST
Nautical Twilight 6:29 AM CST 6:14 PM CST
Astronomical Twilight 5:55 AM CST 6:48 PM CST
Moon 12:48 PM CST (1/21) 3:04 AM CST (1/21)
Length of Visible Light 10h 35m
Length of Day
9h 33m
Waxing Gibbous, 75% of the Moon is Illuminated
Jan 21
Waxing Gibbous
Jan 26
Full
Feb 3
Last Quarter
Feb 10
New
Feb 17
First Quarter

Hourly Weather History & Observations

Time (CST) Temp. Windchill Dew Point Humidity Pressure Visibility Wind Dir Wind Speed Gust Speed Precip Events Conditions
12:15 AM 5.0 °F -14.2 °F -4.0 °F 66% 30.24 in 10.0 mi NW 17.3 mph - N/A   Clear
12:35 AM 3.2 °F -15.9 °F -4.0 °F 72% 30.24 in 10.0 mi NW 16.1 mph - N/A   Partly Cloudy
12:55 AM 3.2 °F -16.5 °F -5.8 °F 66% 30.24 in 10.0 mi NW 17.3 mph 24.2 mph N/A   Scattered Clouds
1:15 AM 3.2 °F -18.6 °F -5.8 °F 66% 30.24 in 10.0 mi NW 21.9 mph 28.8 mph N/A   Clear
1:35 AM 3.2 °F -18.1 °F -7.6 °F 61% 30.25 in 10.0 mi NW 20.7 mph 27.6 mph N/A   Partly Cloudy
1:55 AM 1.4 °F -21.0 °F -7.6 °F 66% 30.25 in 10.0 mi NW 21.9 mph 28.8 mph N/A   Scattered Clouds
2:15 AM 1.4 °F -19.9 °F -9.4 °F 61% 30.26 in 10.0 mi NW 19.6 mph 27.6 mph N/A   Scattered Clouds
2:35 AM -0.4 °F -22.3 °F -11.2 °F 60% 30.26 in 10.0 mi NW 19.6 mph 28.8 mph N/A   Partly Cloudy
2:55 AM -0.4 °F -23.8 °F -13.0 °F 55% 30.27 in 10.0 mi NW 23.0 mph 28.8 mph N/A   Clear
3:15 AM -2.2 °F -23.5 °F -11.2 °F 66% 30.26 in 10.0 mi NW 17.3 mph 25.3 mph N/A   Scattered Clouds
3:35 AM -2.2 °F -22.9 °F -13.0 °F 60% 30.26 in 10.0 mi NW 16.1 mph 25.3 mph N/A   Scattered Clouds
3:55 AM -2.2 °F -24.1 °F -13.0 °F 60% 30.26 in 10.0 mi NW 18.4 mph 26.5 mph N/A   Partly Cloudy
4:15 AM -2.2 °F -24.7 °F -13.0 °F 60% 30.26 in 10.0 mi NW 19.6 mph 25.3 mph N/A   Partly Cloudy
4:35 AM -2.2 °F -25.2 °F -13.0 °F 60% 30.25 in 10.0 mi NW 20.7 mph 28.8 mph N/A   Mostly Cloudy
4:55 AM -2.2 °F -23.5 °F -13.0 °F 60% 30.26 in 10.0 mi NW 17.3 mph 27.6 mph N/A   Mostly Cloudy
5:15 AM -2.2 °F -23.5 °F -13.0 °F 60% 30.26 in 7.0 mi WNW 17.3 mph 26.5 mph N/A   Light Freezing Rain
5:35 AM -2.2 °F -22.9 °F -13.0 °F 60% 30.26 in 8.0 mi NW 16.1 mph 24.2 mph N/A   Light Freezing Rain
5:55 AM -4.0 °F -27.6 °F -14.8 °F 60% 30.27 in 10.0 mi NW 20.7 mph 31.1 mph N/A   Mostly Cloudy
6:15 AM -5.8 °F -29.9 °F -16.6 °F 60% 30.27 in - WNW 20.7 mph 28.8 mph N/A   Scattered Clouds
6:35 AM -5.8 °F -27.5 °F -18.4 °F 55% 30.28 in 10.0 mi NW 16.1 mph 25.3 mph N/A   Clear
6:55 AM -5.8 °F - -18.4 °F 55% 30.28 in 10.0 mi North - - N/A   Partly Cloudy
7:15 AM -7.6 °F -32.3 °F -20.2 °F 54% 30.29 in 10.0 mi WNW 20.7 mph 28.8 mph N/A   Clear
7:35 AM -7.6 °F -32.3 °F -18.4 °F 59% 30.29 in 10.0 mi WNW 20.7 mph - N/A   Clear
7:55 AM -7.6 °F -31.1 °F -18.4 °F 59% 30.30 in 10.0 mi WNW 18.4 mph - N/A   Clear
8:15 AM -7.6 °F -30.5 °F -18.4 °F 59% 30.30 in 10.0 mi WNW 17.3 mph 24.2 mph N/A   Clear
8:35 AM -7.6 °F -29.8 °F -18.4 °F 59% 30.31 in 10.0 mi NW 16.1 mph 24.2 mph N/A   Clear
8:55 AM -5.8 °F -29.9 °F -18.4 °F 55% 30.31 in 10.0 mi WNW 20.7 mph 26.5 mph N/A   Clear
9:15 AM -5.8 °F -28.8 °F -16.6 °F 60% 30.32 in 10.0 mi WNW 18.4 mph - N/A   Clear
9:35 AM -5.8 °F -28.8 °F -16.6 °F 60% 30.32 in 10.0 mi WNW 18.4 mph - N/A   Clear
9:55 AM -4.0 °F -25.8 °F -16.6 °F 55% 30.33 in 10.0 mi NW 17.3 mph 23.0 mph N/A   Clear
10:15 AM -4.0 °F -26.4 °F -16.6 °F 55% 30.33 in 10.0 mi NW 18.4 mph - N/A   Partly Cloudy
10:35 AM -2.2 °F -24.7 °F -16.6 °F 50% 30.34 in 10.0 mi WNW 19.6 mph - N/A   Scattered Clouds
10:55 AM -2.2 °F -23.5 °F -14.8 °F 55% 30.34 in 10.0 mi WNW 17.3 mph 25.3 mph N/A   Mostly Cloudy
11:15 AM -2.2 °F -25.7 °F -14.8 °F 55% 30.33 in 9.0 mi WNW 21.9 mph - N/A   Scattered Clouds
11:35 AM -0.4 °F -22.8 °F -14.8 °F 51% 30.32 in 8.0 mi WNW 20.7 mph 26.5 mph N/A   Scattered Clouds
11:55 AM -0.4 °F -22.3 °F -13.0 °F 55% 30.31 in 9.0 mi WNW 19.6 mph - N/A   Scattered Clouds
12:15 PM 1.4 °F -19.9 °F -13.0 °F 51% 30.29 in 9.0 mi NW 19.6 mph 26.5 mph N/A   Mostly Cloudy
12:35 PM 1.4 °F -18.2 °F -13.0 °F 51% 30.28 in 10.0 mi WNW 16.1 mph 26.5 mph N/A   Mostly Cloudy
12:55 PM 1.4 °F -21.0 °F -13.0 °F 51% 30.27 in 10.0 mi NW 21.9 mph 27.6 mph N/A   Mostly Cloudy
1:15 PM 3.2 °F -17.6 °F -11.2 °F 51% 30.27 in 10.0 mi WNW 19.6 mph 26.5 mph N/A   Partly Cloudy
1:35 PM 3.2 °F -17.1 °F -11.2 °F 51% 30.26 in 10.0 mi NW 18.4 mph 25.3 mph N/A   Clear
1:55 PM 3.2 °F -17.6 °F -13.0 °F 47% 30.26 in 10.0 mi WNW 19.6 mph 28.8 mph N/A   Partly Cloudy
2:15 PM 3.2 °F -17.6 °F -11.2 °F 51% 30.26 in 10.0 mi WNW 19.6 mph - N/A   Partly Cloudy
2:35 PM 3.2 °F -18.1 °F -11.2 °F 51% 30.26 in 10.0 mi WNW 20.7 mph 28.8 mph N/A   Scattered Clouds
2:55 PM 5.0 °F -13.6 °F -11.2 °F 47% 30.26 in 10.0 mi West 16.1 mph - N/A   Scattered Clouds
3:15 PM 5.0 °F -16.7 °F -11.2 °F 47% 30.26 in 10.0 mi NW 23.0 mph - N/A   Scattered Clouds
3:35 PM 5.0 °F -14.7 °F -11.2 °F 47% 30.26 in 10.0 mi NW 18.4 mph 25.3 mph N/A   Partly Cloudy
3:55 PM 5.0 °F -15.2 °F -11.2 °F 47% 30.26 in 10.0 mi NW 19.6 mph - N/A   Clear
4:15 PM 5.0 °F -14.2 °F -11.2 °F 47% 30.26 in 10.0 mi WNW 17.3 mph 24.2 mph N/A   Clear
4:35 PM 3.2 °F -15.9 °F -11.2 °F 51% 30.26 in 10.0 mi WNW 16.1 mph 23.0 mph N/A   Clear
4:55 PM 3.2 °F -17.1 °F -11.2 °F 51% 30.26 in 10.0 mi WNW 18.4 mph - N/A   Scattered Clouds
5:15 PM 3.2 °F -17.1 °F -11.2 °F 51% 30.26 in 10.0 mi WNW 18.4 mph - N/A   Partly Cloudy
5:35 PM 1.4 °F -17.6 °F -11.2 °F 56% 30.26 in 10.0 mi WNW 15.0 mph - N/A   Clear
5:55 PM 1.4 °F -17.6 °F -9.4 °F 61% 30.26 in 10.0 mi WNW 15.0 mph - N/A   Clear
6:15 PM 1.4 °F -17.6 °F -9.4 °F 61% 30.26 in 10.0 mi WNW 15.0 mph - N/A   Clear
6:35 PM 1.4 °F -16.9 °F -9.4 °F 61% 30.26 in 10.0 mi WNW 13.8 mph - N/A   Clear
6:55 PM 1.4 °F -16.9 °F -9.4 °F 61% 30.27 in 10.0 mi WNW 13.8 mph - N/A   Clear
7:15 PM 1.4 °F -15.3 °F -9.4 °F 61% 30.27 in 10.0 mi WNW 11.5 mph - N/A   Clear
7:35 PM -0.4 °F -17.6 °F -9.4 °F 66% 30.27 in 10.0 mi WNW 11.5 mph - N/A   Clear
7:55 PM -0.4 °F -17.6 °F -9.4 °F 66% 30.27 in 10.0 mi WNW 11.5 mph - N/A   Clear
8:15 PM -0.4 °F -17.6 °F -9.4 °F 66% 30.28 in 10.0 mi NW 11.5 mph - N/A   Partly Cloudy
8:35 PM -0.4 °F -18.4 °F -9.4 °F 66% 30.28 in 10.0 mi NW 12.7 mph 18.4 mph N/A   Partly Cloudy
8:55 PM -0.4 °F -21.2 °F -9.4 °F 66% 30.29 in 10.0 mi NW 17.3 mph - N/A   Clear
9:15 PM -0.4 °F -17.6 °F -11.2 °F 60% 30.30 in 10.0 mi NW 11.5 mph - N/A   Clear
9:35 PM -0.4 °F -18.4 °F -11.2 °F 60% 30.30 in 10.0 mi NW 12.7 mph 19.6 mph N/A   Clear
9:55 PM -2.2 °F -19.9 °F -11.2 °F 66% 30.30 in 10.0 mi NW 11.5 mph - N/A   Clear
10:15 PM -2.2 °F -18.0 °F -11.2 °F 66% 30.30 in 10.0 mi NW 9.2 mph - N/A   Clear
10:35 PM -2.2 °F -16.8 °F -11.2 °F 66% 30.30 in 10.0 mi WNW 8.1 mph - N/A   Clear
10:55 PM -2.2 °F -16.8 °F -11.2 °F 66% 30.30 in 10.0 mi WNW 8.1 mph - N/A   Clear
11:15 PM -2.2 °F -15.6 °F -11.2 °F 66% 30.30 in 10.0 mi WNW 6.9 mph - N/A   Clear
11:35 PM -4.0 °F -17.8 °F -11.2 °F 71% 30.30 in 10.0 mi West 6.9 mph - N/A   Clear
11:55 PM -4.0 °F -17.8 °F -11.2 °F 71% 30.30 in 10.0 mi West 6.9 mph - N/A   Clear